Location: Dampvalley
(47.9094°N, 6.1967°E)
Time: 03:27:43
(UTC+00:00)

N. Korean satellite - Pass Details

Date: 09 December 2022
Orbit: 407 x 444 km, 97.3° (Epoch: 28 January)

Event Time Altitude Azimuth Distance (km) Brightness Sun altitude
Rises 16:59:51 0° 206° (SSW) 2,470 10.9 -12.3°
Reaches altitude 10° 17:02:28 10° 229° (SW) 1,610 10.4 -12.7°
Maximum altitude 17:04:42 16° 269° (W) 1,293 9.8 -13.1°
Drops below altitude 10° 17:06:56 10° 309° (NW) 1,630 9.7 -13.4°
Sets 17:09:38 0° 331° (NNW) 2,515 10.3 -13.9°
